| time (UTC) | temp F | wind direction | speed MPH | gust MPH | rain 1hr in | rain 24hr in | rain mn in | humidity % | barometer mb |
| 20260504050003 | 45 | 250 | 1.0 | 2.0 | 0.00 | 0.00 | 0.00 | 77 | 1014.9 |
| 20260504045402 | 45 | 254 | 1.0 | 2.0 | 0.00 | 0.00 | 0.00 | 77 | 1014.9 |
| 20260504044503 | 45 | 265 | 1.0 | 2.0 | 0.00 | 0.00 | 0.00 | 80 | 1014.9 |
| 20260504043602 | 45 | 284 | 2.0 | 3.0 | 0.00 | 0.00 | 0.00 | 81 | 1014.9 |
| 20260504042702 | 44 | 309 | 1.0 | 2.0 | 0.00 | 0.00 | 0.00 | 82 | 1014.7 |
| 20260504041802 | 44 | 316 | 1.0 | 2.0 | 0.00 | 0.00 | 0.00 | 82 | 1014.8 |
| 20260504040902 | 44 | 349 | 0.0 | 1.0 | 0.00 | 0.00 | 0.00 | 80 | 1014.8 |
| 20260504040002 | 44 | 349 | 0.0 | 2.0 | 0.00 | 0.00 | 0.00 | 80 | 1014.9 |
| 20260504035402 | 44 | 349 | 1.0 | 2.0 | 0.00 | 0.00 | 0.00 | 81 | 1014.8 |
| 20260504034502 | 44 | 349 | 0.0 | 2.0 | 0.00 | 0.00 | 0.00 | 82 | 1014.9 |
| 20260504033623 | 44 | 349 | 0.0 | 2.0 | 0.00 | 0.00 | 0.00 | 79 | 1014.9 |
| 20260504032702 | 44 | 349 | 0.0 | 1.0 | 0.00 | 0.00 | 0.00 | 79 | 1014.9 |
| 20260504031803 | 44 | 349 | 0.0 | 1.0 | 0.00 | 0.00 | 0.00 | 78 | 1014.7 |
| 20260504030902 | 44 | 349 | 0.0 | 1.0 | 0.00 | 0.00 | 0.00 | 75 | 1014.8 |
| 20260504030002 | 44 | 349 | 0.0 | 2.0 | 0.00 | 0.00 | 0.00 | 75 | 1014.8 |
| 20260504025402 | 44 | 349 | 0.0 | 2.0 | 0.00 | 0.00 | 0.00 | 75 | 1014.7 |
| 20260504024502 | 44 | 349 | 0.0 | 2.0 | 0.00 | 0.00 | 0.00 | 72 | 1014.3 |
| 20260504023602 | 44 | 0 | 0.0 | 0.0 | 0.00 | 0.00 | 0.00 | 67 | 1014.4 |
| 20260504022724 | 43 | 349 | 0.0 | 2.0 | 0.00 | 0.00 | 0.00 | 66 | 1014.3 |
| 20260504021823 | 43 | 349 | 1.0 | 2.0 | 0.00 | 0.00 | 0.00 | 66 | 1014.3 |
| 20260504020923 | 44 | 349 | 1.0 | 2.0 | 0.00 | 0.00 | 0.00 | 70 | 1014.1 |
| 20260504020024 | 44 | 354 | 2.0 | 3.0 | 0.00 | 0.00 | 0.00 | 67 | 1014.1 |
| 20260504015402 | 45 | 359 | 2.0 | 3.0 | 0.00 | 0.00 | 0.00 | 67 | 1014.0 |
| 20260504014503 | 45 | 344 | 1.0 | 2.0 | 0.00 | 0.00 | 0.00 | 64 | 1014.0 |
| 20260504013623 | 46 | 325 | 2.0 | 3.0 | 0.00 | 0.00 | 0.00 | 63 | 1013.9 |
| 20260504012724 | 46 | 298 | 2.0 | 3.0 | 0.00 | 0.00 | 0.00 | 62 | 1013.9 |
| 20260504011802 | 47 | 288 | 1.0 | 2.0 | 0.00 | 0.00 | 0.00 | 60 | 1013.9 |
| 20260504010903 | 47 | 303 | 2.0 | 2.0 | 0.00 | 0.00 | 0.00 | 59 | 1013.6 |
| 20260504010024 | 49 | 302 | 1.0 | 2.0 | 0.00 | 0.00 | 0.00 | 57 | 1013.6 |
| 20260504005402 | 50 | 293 | 1.0 | 2.0 | 0.00 | 0.00 | 0.00 | 56 | 1013.7 |
| 20260504004502 | 50 | 298 | 1.0 | 2.0 | 0.00 | 0.00 | 0.00 | 52 | 1013.9 |
| 20260504003602 | 52 | 317 | 0.0 | 2.0 | 0.00 | 0.00 | 0.00 | 50 | 1013.6 |
| 20260504002702 | 52 | 317 | 1.0 | 2.0 | 0.00 | 0.00 | 0.00 | 49 | 1013.3 |
| 20260504001802 | 54 | 308 | 1.0 | 2.0 | 0.00 | 0.00 | 0.00 | 47 | 1013.4 |
| 20260504000902 | 56 | 310 | 1.0 | 3.0 | 0.00 | 0.00 | 0.00 | 45 | 1013.4 |
| 20260504000024 | 57 | 310 | 2.0 | 4.0 | 0.00 | 0.00 | 0.00 | 38 | 1013.2 |
| 20260503235402 | 58 | 316 | 1.0 | 4.0 | 0.00 | 0.00 | 0.00 | 35 | 1013.2 |
| 20260503234503 | 59 | 359 | 2.0 | 4.0 | 0.00 | 0.00 | 0.00 | 34 | 1013.2 |
| 20260503233602 | 60 | 40 | 3.0 | 5.0 | 0.00 | 0.00 | 0.00 | 30 | 1013.2 |
| 20260503232702 | 60 | 31 | 3.0 | 5.0 | 0.00 | 0.00 | 0.00 | 28 | 1013.2 |
| 20260503231823 | 61 | 17 | 2.0 | 4.0 | 0.00 | 0.00 | 0.00 | 30 | 1013.0 |
| 20260503230902 | 62 | 6 | 2.0 | 4.0 | 0.00 | 0.00 | 0.00 | 25 | 1013.0 |
| 20260503230002 | 62 | 353 | 2.0 | 4.0 | 0.00 | 0.00 | 0.00 | 25 | 1012.9 |
| 20260503225402 | 62 | 6 | 3.0 | 8.0 | 0.00 | 0.00 | 0.00 | 25 | 1012.9 |
| 20260503224502 | 62 | 359 | 4.0 | 7.0 | 0.00 | 0.00 | 0.00 | 28 | 1012.8 |
| 20260503223602 | 62 | 23 | 3.0 | 6.0 | 0.00 | 0.00 | 0.00 | 26 | 1012.9 |
| 20260503222723 | 62 | 17 | 4.0 | 7.0 | 0.00 | 0.00 | 0.00 | 26 | 1012.9 |
| 20260503221823 | 62 | 311 | 4.0 | 10.0 | 0.00 | 0.00 | 0.00 | 26 | 1012.8 |
| 20260503220902 | 63 | 322 | 3.0 | 8.0 | 0.00 | 0.00 | 0.00 | 26 | 1013.1 |
| 20260503220003 | 63 | 319 | 3.0 | 7.0 | 0.00 | 0.00 | 0.00 | 27 | 1013.1 |
| 20260503215403 | 63 | 293 | 4.0 | 8.0 | 0.00 | 0.00 | 0.00 | 26 | 1013.1 |
| 20260503214502 | 63 | 319 | 4.0 | 9.0 | 0.00 | 0.00 | 0.00 | 27 | 1013.1 |
| 20260503213603 | 63 | 222 | 1.0 | 4.0 | 0.00 | 0.00 | 0.00 | 25 | 1013.1 |
| 20260503212724 | 63 | 308 | 3.0 | 8.0 | 0.00 | 0.00 | 0.00 | 27 | 1013.2 |
| 20260503211802 | 63 | 169 | 2.0 | 5.0 | 0.00 | 0.00 | 0.00 | 26 | 1013.1 |
| 20260503210902 | 63 | 189 | 4.0 | 10.0 | 0.00 | 0.00 | 0.00 | 27 | 1013.2 |
| 20260503210002 | 62 | 261 | 7.0 | 17.0 | 0.00 | 0.00 | 0.00 | 30 | 1013.3 |
| 20260503205402 | 62 | 268 | 4.0 | 17.0 | 0.00 | 0.00 | 0.00 | 27 | 1013.4 |
| 20260503204503 | 62 | 249 | 1.0 | 4.0 | 0.00 | 0.00 | 0.00 | 26 | 1013.4 |
| 20260503203624 | 61 | 12 | 2.0 | 6.0 | 0.00 | 0.00 | 0.00 | 27 | 1013.3 |
| 20260503202702 | 61 | 316 | 4.0 | 10.0 | 0.00 | 0.00 | 0.00 | 27 | 1013.6 |
| 20260503201802 | 61 | 331 | 4.0 | 10.0 | 0.00 | 0.00 | 0.00 | 30 | 1013.6 |
| 20260503200902 | 61 | 283 | 5.0 | 10.0 | 0.00 | 0.00 | 0.00 | 29 | 1014.1 |
| 20260503200002 | 60 | 335 | 4.0 | 10.0 | 0.00 | 0.00 | 0.00 | 29 | 1014.1 |
| 20260503195402 | 61 | 304 | 4.0 | 10.0 | 0.00 | 0.00 | 0.00 | 28 | 1014.1 |
| 20260503194502 | 60 | 282 | 8.0 | 14.0 | 0.00 | 0.00 | 0.00 | 32 | 1014.2 |
| 20260503193602 | 60 | 289 | 10.0 | 19.0 | 0.00 | 0.00 | 0.00 | 29 | 1014.3 |
| 20260503192703 | 60 | 335 | 6.0 | 14.0 | 0.00 | 0.00 | 0.00 | 31 | 1014.3 |
| 20260503191802 | 60 | 317 | 7.0 | 14.0 | 0.00 | 0.00 | 0.00 | 31 | 1014.5 |
| 20260503190924 | 60 | 289 | 7.0 | 17.0 | 0.00 | 0.00 | 0.00 | 33 | 1014.6 |
| 20260503190003 | 60 | 301 | 6.0 | 17.0 | 0.00 | 0.00 | 0.00 | 34 | 1014.7 |
| 20260503185403 | 59 | 261 | 4.0 | 9.0 | 0.00 | 0.00 | 0.00 | 36 | 1014.8 |
| 20260503184502 | 59 | 284 | 3.0 | 9.0 | 0.00 | 0.00 | 0.00 | 31 | 1014.9 |
| 20260503183603 | 59 | 272 | 5.0 | 11.0 | 0.00 | 0.00 | 0.00 | 32 | 1015.2 |
| 20260503182723 | 58 | 235 | 5.0 | 15.0 | 0.00 | 0.00 | 0.00 | 31 | 1015.3 |
| 20260503181823 | 58 | 296 | 6.0 | 12.0 | 0.00 | 0.00 | 0.00 | 34 | 1015.3 |
| 20260503180902 | 57 | 283 | 4.0 | 12.0 | 0.00 | 0.00 | 0.00 | 38 | 1015.4 |
| 20260503180002 | 57 | 306 | 5.0 | 13.0 | 0.00 | 0.00 | 0.00 | 37 | 1015.4 |
| 20260503175403 | 56 | 280 | 8.0 | 17.0 | 0.00 | 0.00 | 0.00 | 35 | 1015.5 |
| 20260503174502 | 57 | 286 | 7.0 | 17.0 | 0.00 | 0.00 | 0.00 | 34 | 1015.6 |
| 20260503173603 | 56 | 275 | 9.0 | 18.0 | 0.00 | 0.00 | 0.00 | 32 | 1015.7 |
| 20260503172702 | 56 | 268 | 9.0 | 16.0 | 0.00 | 0.00 | 0.00 | 33 | 1015.8 |
| 20260503171803 | 56 | 306 | 8.0 | 18.0 | 0.00 | 0.00 | 0.00 | 39 | 1015.9 |
| 20260503170902 | 56 | 307 | 9.0 | 17.0 | 0.00 | 0.00 | 0.00 | 36 | 1016.2 |
| 20260503150902 | 51 | 296 | 7.0 | 18.0 | 0.00 | 0.00 | 0.00 | 44 | 1017.2 |
| 20260503130903 | 46 | 294 | 6.0 | 9.0 | 0.00 | 0.00 | 0.00 | 55 | 1017.1 |
| 20260503080903 | 43 | 347 | 4.0 | 9.0 | 0.00 | 0.00 | 0.00 | 66 | 1014.4 |
| 20260503072703 | 43 | 347 | 7.0 | 12.0 | 0.00 | 0.00 | 0.00 | 65 | 1014.2 |
| 20260503071803 | 44 | 350 | 7.0 | 10.0 | 0.00 | 0.00 | 0.00 | 65 | 1013.9 |
| 20260503070903 | 44 | 330 | 6.0 | 10.0 | 0.00 | 0.00 | 0.00 | 64 | 1013.8 |